Regional Weather Roundup
Issued by NWS Charleston, SC

Current Version | Previous Version | Text Only | Print | Product List | Glossary Off
Versions: 1 2 3 4 5 6 7 8 9 10 11 12 13 14 15 16 17 18 19 20 21 22 23 24 25 26 27 28 29 30 31 32 33 34 35 36 37 38 39 40 41 42 43 44 45 46 47 48 49 50
108 ASUS42 KCHS 291912 RWRCHS REGIONAL WEATHER ROUNDUP NATIONAL WEATHER SERVICE CHARLESTON SC 300 PM EDT WED MAR 29 2017 NOTE: "FAIR" INDICATES FEW OR NO CLOUDS BELOW 12,000 FEET WITH NO SIGNIFICANT WEATHER AND/OR OBSTRUCTIONS TO VISIBILITY. NOT ALL STATIONS ARE QUALITY CONTROLLED. USE DATA WITH CAUTION... ESPECIALLY DEWPOINT OBSERVATIONS. SCZ027-030-031-034>040-042>050-292000- ...SOUTHEAST SOUTH CAROLINA... CITY SKY/WX TMP DP RH WIND PRES REMARKS N CHARLESTON MOSUNNY 81 57 43 S17 29.99F WATERFRONT PRK N/A 68 60 75 SE12 30.00S JOHNS ISLAND FAIR 75 61 60 E12 30.00F PINOPOLIS N/A 75 57 53 CALM 29.94F MONCKS CORNER FAIR 81 46 30 NW5 30.00F SUMMERVILLE FAIR 82 50 32 N8 30.00F BEAUFORT MCAS PTSUNNY 81 60 48 CALM 30.00F BEAUFORT ARPT FAIR 79 55 44 CALM 30.00F HILTON HEAD IS SUNNY 75 57 53 E7 30.02F WALTERBORO CLEAR 82 48 30 CALM 30.00F ALLENDALE FAIR 82 52 34 VRB5 29.99F ...SOUTHERN MIDLANDS AND PEE DEE... CITY SKY/WX TMP DP RH WIND PRES REMARKS GEORGETOWN FAIR 72 57 60 SE15 30.02F KINGSTREE FAIR 81 46 30 NW5 29.99F ORANGEBURG SUNNY 81 50 33 CALM 30.00F BARNWELL FAIR 84 54 34 NE7 30.00F AIKEN FAIR 81 50 34 NW7 30.04F MANNING FAIR 81 46 30 NW5 30.00F COLUMBIA MOSUNNY 81 50 33 S5 30.00F SUMTER MOSUNNY 81 51 35 N3 29.98F FLORENCE PTSUNNY 80 53 39 N8 30.00F MYRTLE BEACH MOSUNNY 70 61 73 E20 30.03S N MYRTLE BEACH SUNNY 69 59 70 E17G24 30.02S $$ GAZ063-065-086>088-099>101-113>116-118-119-134>141-150-292000- ...SOUTHEAST GEORGIA... CITY SKY/WX TMP DP RH WIND PRES REMARKS SAVANNAH ARPT PTSUNNY 85 56 37 E9 29.99F HUNTER AAF CLOUDY 81 60 49 SE3 29.98F FORT STEWART MOSUNNY 86 56 36 NE6 29.97F STATESBORO SUNNY 84 58 41 NW7 30.00F SYLVANIA CLEAR N/A N/A N/A N3 30.01F CLAXTON FAIR 84 59 41 NE5 30.00F ...CSRA...CENTRAL AND FAR SOUTHEAST GEORGIA... CITY SKY/WX TMP DP RH WIND PRES REMARKS THOMSON SUNNY 82 52 36 NE9 30.06F AUGUSTA-BUSH SUNNY 86 54 33 MISG 29.99F AUGUSTA-DANIEL SUNNY 83 50 31 VRB3 30.02F SWAINSBORO FAIR 84 54 34 W3 30.01F VIDALIA PTSUNNY 84 55 37 NW3 30.01S EASTMAN FAIR 86 38 18 CALM 30.02F HAZLEHURST FAIR 87 60 40 CALM 29.99F ALMA MOSUNNY 84 60 44 NW6 29.99F WAYCROSS PTSUNNY 87 65 47 SW5 29.99F JESUP MOCLDY 86 54 32 W3 29.99F BAXLEY FAIR 86 64 48 CALM 29.99F BRUNSWICK MOSUNNY 81 68 65 SE8 30.00F SAINT SIMONS MOSUNNY 76 62 62 SE10 30.01F $$ SCZ027-028-034-036>038-045-046-048>050-GAZ119-141-292000- ...LAKE AND SUPPLEMENTAL COASTAL OBSERVATIONS... STATION/POSITION TIME TEMP WIND PRES WAVE SWELL AIR SEA DIR/SP/G HT/PER HT/PER/DIR (UTC) (F) (DEG/KT/KT) (MB) (FT/S) (FT/S/D) WINYAH BAY 1745 69 90/ 10 1017.0 LAKE MURRAY 1820 73 200/ 7/ 8 1016.3 ACE BASIN NERRS 1745 77 190/ 2 1016.0 FORT PULASKI 1848 67 66 100/ 10/ 11 1016.7F SAPELO ISLAND 1800 81 90/ 7 1016.0 $$ ANZ835-935-AMZ111-154-330-350-352-354-370-450-454-472-292000- ...C-MAN AND BUOY OBSERVATIONS... STATION/POSITION TIME TEMP WIND PRES WAVE SWELL AIR SEA DIR/SP/G HT/PER HT/PER/DIR (UTC) (F) (DEG/KT/KT) (MB) (FT/S) (FT/S/D) BUOY 41004 1750 69 71 20/ 12/ 14 1016.1 5/10 5/110/10 BUOY 41008 1750 67 67 360/ 4/ 6 1016.8 3/11 3/ 90/11 FOLLY BEACH CMAN 1800 67 90/ 9/ 10 1017.6S CAPERS NEARSHORE NOT AVBL FRIPP NEARSHORE 1808 66 65 70/ 8/ 10 1016.5F STATION/POSITION TIME TEMP WIND PRES WAVE SWELL AIR SEA DIR/SP/G HT/PER HT/PER/DIR (UTC) (F) (DEG/KT/KT) (MB) (FT/S) (FT/S/D) 5E ST. MARYS GA 1830 70 N/A 3/11 2/110/11 FRYING PAN BUOY 1850 67 73 30/ 19/ 25 1016.5S 5/10 3/150/10 BUOY 41025 1850 55 73 20/ 23/ 27 1017.5F 6/10 3/130/10 CAPE LOOKOUT NC 1800 59 40/ 16/ 18 1017.7F BUOY 41002 1750 73 73 290/ 10/ 12 1015.0 7/ 9 7/120/ 9 BUOY 41010 NOT AVBL ST AUGUSTINE FL 1900 72 69 80/ 5/ 6 1016.9F $$

USA.gov is the U.S. government's official web portal to all federal, state and local government web resources and services.